McAlester, OK

1:37 PM CST on November 11, 2019 (GMT -0600)
McAlester Regional

Weather History for KMLC - October, 2019

Change the Weather History Date:

Monday, October 21, 2019

  Actual Average Record
Temperature  
Mean Temperature 57 °F -  
Max Temperature 70 °F 73 °F 91 °F (2003)
Min Temperature 43 °F 49 °F 30 °F (1976)
Degree Days  
Heating Degree Days 8    
Growing Degree Days 7 (Base 50)    
Moisture  
Dew Point 46 °F    
Average Humidity 67    
Maximum Humidity 90    
Minimum Humidity 24    
Precipitation  
Precipitation 0.50 in - - ()
Sea Level Pressure  
Sea Level Pressure 29.76 in    
Wind  
Wind Speed 9 mph ()    
Max Wind Speed 23 mph    
Max Gust Speed 31 mph    
Visibility 8.4 miles    
Events Rain , Thunderstorm    
Averages and records for this station are not official NWS values.
T = Trace of Precipitation, MM = Missing Value Source: Averaged Metar Reports

Daily Weather History Graph

Daily Weather History Graph

Search for Another Location

Airport or City:

Astronomy

Oct. 21, 2019 Rise Set
Actual Time 7:33 AM CDT 6:41 PM CDT
Civil Twilight 7:08 AM CDT 7:06 PM CDT
Nautical Twilight 6:38 AM CDT 7:36 PM CDT
Astronomical Twilight 6:09 AM CDT 8:05 PM CDT
Moon 12:01 AM CDT (10/21) 2:44 PM CDT (10/21)
Length of Visible Light 11h 58m
Length of Day
11h 07m
Waning Gibbous, 48% of the Moon is Illuminated
Oct 21
Waning Gibbous
Oct 27
New
Nov 4
First Quarter
Nov 12
Full
Nov 19
Last Quarter

Hourly Weather History & Observations

Time (CDT) Temp. Dew Point Humidity Pressure Visibility Wind Dir Wind Speed Gust Speed Precip Events Conditions
12:00 AM 66.9 °F 62.1 °F 84% 29.57 in 1.8 mi Variable 4.6 mph - 0.11 in Rain , Thunderstorm Heavy Thunderstorms and Rain
12:10 AM 66.9 °F 62.1 °F 84% 29.60 in 1.8 mi West 23.0 mph 31.1 mph 0.24 in Rain , Thunderstorm Heavy Thunderstorms and Rain
12:17 AM 64.0 °F 60.1 °F 87% 29.58 in 1.0 mi West 13.8 mph 31.1 mph 0.44 in Rain , Thunderstorm Heavy Thunderstorms and Rain
12:20 AM 63.0 °F 60.1 °F 90% 29.58 in 1.0 mi West 12.7 mph 29.9 mph 0.48 in Rain , Thunderstorm Heavy Rain
12:27 AM 63.0 °F 60.1 °F 90% 29.57 in 2.5 mi West 13.8 mph 23.0 mph 0.50 in Rain , Thunderstorm Rain
12:34 AM 64.0 °F 61.0 °F 90% 29.58 in 8.0 mi West 12.7 mph 23.0 mph 0.50 in Rain , Thunderstorm Light Rain
12:45 AM 64.0 °F 61.0 °F 90% 29.58 in 9.0 mi West 10.4 mph - 0.50 in Rain , Thunderstorm Light Thunderstorms and Rain
12:53 AM 64.0 °F 61.0 °F 90% 29.55 in 8.0 mi West 9.2 mph - 0.50 in Rain , Thunderstorm Light Thunderstorms and Rain
1:00 AM 64.0 °F 61.0 °F 90% 29.59 in 9.0 mi West 9.2 mph - 0.00 in Thunderstorm Mostly Cloudy
1:17 AM 64.0 °F 61.0 °F 90% 29.62 in 6.0 mi West 10.4 mph - 0.00 in   Partly Cloudy
1:53 AM 64.0 °F 57.0 °F 78% 29.60 in 10.0 mi NNW 8.1 mph - 0.00 in   Clear
2:53 AM 60.1 °F 54.0 °F 80% 29.67 in 10.0 mi WNW 8.1 mph - N/A   Clear
3:53 AM 57.0 °F 48.9 °F 74% 29.70 in 10.0 mi NW 10.4 mph - N/A   Clear
4:53 AM 55.9 °F 44.1 °F 64% 29.73 in 10.0 mi NW 8.1 mph - N/A   Clear
5:53 AM 54.0 °F 42.1 °F 64% 29.75 in 10.0 mi NNW 4.6 mph - N/A   Partly Cloudy
6:53 AM 46.0 °F 43.0 °F 89% 29.79 in 10.0 mi Calm Calm - N/A   Partly Cloudy
7:53 AM 45.0 °F 41.0 °F 86% 29.80 in 10.0 mi Calm Calm - N/A   Scattered Clouds
8:53 AM 54.0 °F 39.0 °F 57% 29.83 in 10.0 mi North - - N/A   Mostly Cloudy
9:53 AM 59.0 °F 39.0 °F 48% 29.86 in 10.0 mi NW 13.8 mph - N/A   Clear
10:53 AM 61.0 °F 37.0 °F 41% 29.86 in 10.0 mi NW 15.0 mph - N/A   Partly Cloudy
11:53 AM 64.0 °F 37.9 °F 38% 29.87 in 10.0 mi NW 10.4 mph - N/A   Scattered Clouds
12:53 PM 66.0 °F 37.0 °F 34% 29.87 in 10.0 mi West 10.4 mph - N/A   Partly Cloudy
1:53 PM 66.9 °F 36.0 °F 32% 29.86 in 10.0 mi NW 12.7 mph 17.3 mph N/A   Mostly Cloudy
2:53 PM 69.1 °F 33.1 °F 26% 29.86 in 10.0 mi West 11.5 mph 20.7 mph N/A   Clear
3:53 PM 69.1 °F 33.1 °F 26% 29.85 in 10.0 mi WNW 11.5 mph - N/A   Clear
4:53 PM 69.1 °F 30.9 °F 24% 29.86 in 10.0 mi West 12.7 mph - N/A   Clear
5:53 PM 68.0 °F 30.9 °F 25% 29.87 in 10.0 mi West 6.9 mph - N/A   Mostly Cloudy
6:53 PM 63.0 °F 30.9 °F 30% 29.91 in 10.0 mi West 3.5 mph - N/A   Partly Cloudy
8:53 PM 46.9 °F 41.0 °F 80% 29.98 in 10.0 mi Calm Calm - N/A   Scattered Clouds
9:53 PM 46.9 °F 41.0 °F 80% 30.01 in 10.0 mi Calm Calm - N/A   Partly Cloudy
10:53 PM 45.0 °F 41.0 °F 86% 30.04 in 10.0 mi Calm Calm - N/A   Partly Cloudy
11:53 PM 43.0 °F 39.9 °F 89% 30.06 in 10.0 mi Calm Calm - N/A   Scattered Clouds